Simultaneous Nadir Overpasses (SNOs) Predictions

Prediction of SNOs between AQUA and METOP-A Satellite Orbit:

Table of predicted SNOs for the next 14.0 days since TLE Epoch: 1/11/2013
Index Date (AQUA) Time (AQUA) Lat,Lon (AQUA) SZA (AQUA ) Date (METOP-A) Time (METOP-A) Lat,Lon (METOP-A) SZA (METOP-A ) Distance(km) Time Diff (sec)
1 01/12/2013 13:15:14 73.88, -24.78 95.50 01/12/2013 13:14:50 73.87, -24.72 95.49 2.33 24
2 01/12/2013 14:04:41 -73.96, 142.70 84.43 01/12/2013 14:05:30 -73.94, 142.77 84.46 3.09 49
3 01/15/2013 07:59:48 -73.26,-124.64 85.65 01/15/2013 07:58:41 -73.25,-127.07 85.56 77.73 67
4 01/15/2013 08:49:27 73.87, 41.70 95.00 01/15/2013 08:49:09 73.85, 41.64 94.98 3.14 18
5 01/15/2013 09:38:54 -73.94,-150.81 84.94 01/15/2013 09:39:49 -73.92,-150.86 84.96 2.49 55
6 01/18/2013 03:34:06 -73.45, -58.58 85.99 01/18/2013 03:32:57 -73.38, -60.37 85.98 57.32 69
7 01/18/2013 04:23:41 73.85, 108.19 94.43 01/18/2013 04:23:27 73.87, 108.10 94.46 3.55 14
8 01/18/2013 05:13:09 -73.96, -84.43 85.45 01/18/2013 05:14:07 -73.95, -84.38 85.48 2.43 58
9 01/20/2013 23:08:23 -73.58, 7.59 86.45 01/20/2013 23:07:12 -73.50, 6.32 86.46 40.91 71
10 01/20/2013 23:57:56 73.88, 174.57 93.87 01/20/2013 23:57:44 73.88, 174.55 93.88 0.88 12
11 01/21/2013 00:47:23 -73.94, -17.92 86.08 01/21/2013 00:48:24 -73.97, -17.92 86.05 3.31 61
12 01/23/2013 18:42:38 -73.60, 73.99 87.07 01/23/2013 18:41:27 -73.56, 72.90 87.04 34.73 71
13 01/23/2013 19:32:11 73.90,-119.03 93.26 01/23/2013 19:32:00 73.89,-119.00 93.25 1.48 11
14 01/23/2013 20:21:37 -73.95, 48.48 86.70 01/23/2013 20:22:39 -73.98, 48.54 86.69 3.20 62




NCC Satellite Simultaneous Nadir Overpasses (SNOs) Prediction Service
